Regional Weather Roundup
Issued by NWS

Home | Current Version | Previous Version | Graphics & Text | Print | Product List | Glossary On
Versions: 1 2 3 4 5 6 7 8 9 10 11 12 13 14 15 16 17 18 19 20 21 22 23 24 25 26 27 28 29 30 31 32 33 34 35 36 37 38 39 40 41 42 43 44 45 46 47 48 49 50
000
ASUS43 KOAX 111210
RWRNE

WEATHER ROUNDUP FOR NEBRASKA
NATIONAL WEATHER SERVICE OMAHA NE
600 AM CST THU FEB 11 2016

NOTES: SATELLITE DATA IS BEING USED TO AUGMENT CLOUD COVER ABOVE
       12000 FEET.
       "FAIR" INDICATES FEW OR NO CLOUDS BELOW 12,000 FEET WITH NO
       SIGNIFICANT WEATHER AND/OR OBSTRUCTIONS TO VISIBILITY.

  * THESE STATIONS DO NOT REPORT WEATHER SUCH AS RAIN...SNOW OR FOG.

NEZ001>004-019>022-054>056-111300-
NEBRASKA PANHANDLE

CITY           SKY/WX    TMP DP  RH WIND       PRES   REMARKS
SCOTTSBLUFF    CLOUDY    33  24  69 N5        30.09S WCI  29
6HR MIN TEMP:  29; 6HR MAX TEMP:  33;

ALLIANCE       CLOUDY    25  21  85 SW7       30.05F WCI  17
6HR MIN TEMP:  21; 6HR MAX TEMP:  28;

CHADRON        CLOUDY    27  24  89 W3        30.04F
6HR MIN TEMP:  23; 6HR MAX TEMP:  29;

KIMBALL        CLOUDY    33  24  70 W8        30.12R WCI  26
SIDNEY         CLOUDY    36  23  59 W13       30.10R WCI  27
6HR MIN TEMP:  29; 6HR MAX TEMP:  36;

$$

NEZ057>060-069>072-079>082-111300-
SOUTHWEST NEBRASKA

CITY           SKY/WX    TMP DP  RH WIND       PRES   REMARKS
NORTH PLATTE   CLOUDY    27  25  92 E6        30.14S FOG     WCI  20
6HR MIN TEMP:  22; 6HR MAX TEMP:  34;

IMPERIAL       CLOUDY    24  21  88 SW3       30.13S
6HR MIN TEMP:  24; 6HR MAX TEMP:  36;

LEXINGTON      CLOUDY    30  27  88 CALM      30.18S
MCCOOK         CLOUDY    26  23  88 CALM      30.17R
6HR MIN TEMP:  24; 6HR MAX TEMP:  38;

OGALLALA       CLOUDY    23  21  92 SW3       30.11S
$$

NEZ005>010-023>029-035>040-094-111300-
NORTH CENTRAL NEBRASKA

CITY           SKY/WX    TMP DP  RH WIND       PRES   REMARKS
VALENTINE      CLOUDY    28  26  92 SE3       30.12R
6HR MIN TEMP:  26; 6HR MAX TEMP:  28;

AINSWORTH      CLOUDY    28  25  86 CALM      30.15R
BROKEN BOW     CLOUDY    30  27  88 CALM      30.14S
6HR MIN TEMP:  29; 6HR MAX TEMP:  31;

O`NEILL        CLOUDY    25  24  95 E5        30.19R FOG     WCI  19
ORD            CLOUDY    27  24  89 E7        30.15F WCI  19
6HR MIN TEMP:  27; 6HR MAX TEMP:  30;

THEDFORD       CLOUDY    30  30  99 SW3       30.12R FOG
$$

NEZ041-046>049-061>064-073>077-083>087-111300-
SOUTH CENTRAL NEBRASKA

CITY           SKY/WX    TMP DP  RH WIND       PRES   REMARKS
GRAND ISLAND   CLOUDY    26  22  84 NE10      30.20F WCI  16
6HR MIN TEMP:  25; 6HR MAX TEMP:  27;

AURORA         CLOUDY    25  23  92 NE7       30.21S FOG     WCI  17
HASTINGS       CLOUDY    27  22  81 NE13      30.20S WCI  16
6HR MIN TEMP:  26; 6HR MAX TEMP:  29;

HEBRON         CLOUDY    22  20  90 NE6       30.25R WCI  15
HOLDREGE       CLOUDY    29  26  90 N5        30.18R WCI  24
KEARNEY *      CLOUDY    28  25  86 NE6       30.18S WCI  22
YORK           CLOUDY    23  21  93 NE8       30.24R WCI  14
$$

NEZ011>018-030>034-042>045-111300-
NORTHEAST NEBRASKA

CITY           SKY/WX    TMP DP  RH WIND       PRES   REMARKS
NORFOLK        CLOUDY    19  15  84 E6        30.23S WCI  11
6HR MIN TEMP:  19; 6HR MAX TEMP:  22;

ALBION         CLOUDY    22  19  89 E3        30.20F
BLAIR          CLOUDY    15   6  68 NE9       30.26S WCI   3
COLUMBUS *     CLOUDY    19   9  63 NE3       30.25S
FREMONT        CLOUDY    17  12  80 NE3       30.28S
TEKAMAH        CLOUDY    15   4  61 E7        30.30S WCI   5
6HR MIN TEMP:  15; 6HR MAX TEMP:  19;

WAYNE          CLOUDY    17  12  82 E6        30.26S WCI   8
$$

NEZ050>053-065>068-078-088>093-111300-
SOUTHEAST NEBRASKA

CITY           SKY/WX    TMP DP  RH WIND       PRES   REMARKS
LINCOLN        CLOUDY    18  14  84 NE8       30.28R WCI   8
6HR MIN TEMP:  16; 6HR MAX TEMP:  22;

OMAHA EPPLEY   CLOUDY    15   3  59 NE5       30.30R WCI   8
6HR MIN TEMP:  15; 6HR MAX TEMP:  19;

BEATRICE       CLOUDY    21  19  93 NE7       30.26R WCI  12
FALLS CITY     CLOUDY    20  17  88 N6        30.26R WCI  12
6HR MIN TEMP:  20; 6HR MAX TEMP:  27;

NEBRASKA CITY  CLOUDY    19  16  88 NE13      30.27R WCI   6
PLATTSMOUTH    CLOUDY    15  11  82 N6        30.28R WCI   7
$$

NEZ044-045-051>053-067-111300-
OMAHA AREA

CITY           SKY/WX    TMP DP  RH WIND       PRES   REMARKS
OMAHA EPPLEY   CLOUDY    15   3  59 NE5       30.30R WCI   8
6HR MIN TEMP:  15; 6HR MAX TEMP:  19;

BLAIR          CLOUDY    15   6  68 NE9       30.26S WCI   3
FREMONT        CLOUDY    17  12  80 NE3       30.28S
MILLARD        CLOUDY    17   8  69 CALM      30.29S
OFFUTT AFB     CLOUDY    14   7  73 NE8       30.29R WCI   3
PLATTSMOUTH    CLOUDY    15  11  82 N6        30.28R WCI   7
WAHOO          CLOUDY    19  14  82 NE8       30.28R WCI   8
$$



USA.gov is the U.S. government's official web portal to all federal, state and local government web resources and services.